ONEWEB-0242 (48772 NORAD) Tracking and Keplerian Element Data

This shows tracking and keplerian element data for the satellite.

Feedback or suggestion? Click here.




ElementValue
Catalog48772
NameONEWEB-0242
Epoch Orbit354
Epoch Day214.91667824
Epoch Year2021
RAAN254.7058
Inclination87.6528
Eccentricity0.0012451
Argument of Perigee47.0969
Mean Anonmoly44.8601
Mean Motion14.44228553
Decay Rate-0.01374214
L11 48772U 21045F 21214.91667824 -.01374214 00000-0 -42816+0 0 9997
L22 48772 87.6528 254.7058 0012451 47.0969 44.8601 14.44228553 3548

Live tracking and technical data element details for ONEWEB-0242 (NORAD 48772). ONEWEB-0242 can be tracked NOW for your location showing map with azimuth and elevation plus other details from your city location.

Track the satellite on the map from your city or location and see movement details for azimuth, elevation, latitude, longitude, range, height, and movement on the map or in text.







IsCatalogInMostPopularTable: catalog: 48772, numindb: 16
Update: records affected: 1



GetName: 48772 ONEWEB-0242

Hit Count: updated at: Tue, 03 Aug 2021 20:27:57 GMT